| time (UTC) | temp F | wind direction | speed MPH | gust MPH | rain 1hr in | rain 24hr in | rain mn in | humidity % | barometer mb |
| 20260507072507 | 55 | 94 | 11.0 | 11.0 | 0.00 | 0.00 | 0.00 | 84 | 1012.5 |
| 20260507072007 | 55 | 94 | 11.0 | 11.0 | 0.00 | 0.00 | 0.00 | 85 | 1012.5 |
| 20260507071507 | 54 | 94 | 11.0 | 11.0 | 0.00 | 0.00 | 0.00 | 85 | 1012.4 |
| 20260507071007 | 54 | 94 | 11.0 | 11.0 | 0.00 | 0.00 | 0.00 | 86 | 1012.3 |
| 20260507070507 | 54 | 94 | 11.0 | 11.0 | 0.00 | 0.00 | 0.00 | 86 | 1012.3 |
| 20260507070011 | 54 | 94 | 11.0 | 11.0 | 0.00 | 0.00 | 0.00 | 86 | 1012.1 |
| 20260507065507 | 53 | 94 | 11.0 | 11.0 | 0.00 | 0.00 | 0.00 | 88 | 1012.1 |
| 20260507065008 | 53 | 94 | 11.0 | 11.0 | 0.00 | 0.00 | 0.00 | 91 | 1012.2 |
| 20260507064507 | 53 | 94 | 11.0 | 11.0 | 0.00 | 0.00 | 0.00 | 92 | 1012.1 |
| 20260507064007 | 53 | 94 | 11.0 | 11.0 | 0.00 | 0.00 | 0.00 | 91 | 1012.0 |
| 20260507063008 | 53 | 94 | 11.0 | 11.0 | 0.00 | 0.00 | 0.00 | 89 | 1012.1 |
| 20260507062508 | 53 | 94 | 11.0 | 11.0 | 0.00 | 0.00 | 0.00 | 89 | 1011.9 |
| 20260507062007 | 53 | 94 | 11.0 | 11.0 | 0.00 | 0.00 | 0.00 | 91 | 1011.8 |
| 20260507061508 | 52 | 94 | 11.0 | 11.0 | 0.00 | 0.00 | 0.00 | 92 | 1011.8 |
| 20260507061009 | 52 | 94 | 11.0 | 11.0 | 0.00 | 0.00 | 0.00 | 93 | 1011.7 |
| 20260507060507 | 52 | 94 | 11.0 | 11.0 | 0.00 | 0.00 | 0.00 | 93 | 1011.9 |
| 20260507060008 | 52 | 94 | 11.0 | 11.0 | 0.00 | 0.00 | 0.00 | 93 | 1011.6 |
| 20260507055506 | 52 | 94 | 11.0 | 11.0 | 0.00 | 0.00 | 0.00 | 94 | 1011.6 |
| 20260507055008 | 52 | 94 | 11.0 | 11.0 | 0.00 | 0.00 | 0.00 | 93 | 1011.6 |
| 20260507054508 | 52 | 94 | 11.0 | 11.0 | 0.00 | 0.00 | 0.00 | 93 | 1011.3 |
| 20260507054007 | 52 | 94 | 11.0 | 11.0 | 0.00 | 0.00 | 0.00 | 93 | 1011.4 |
| 20260507053508 | 52 | 94 | 11.0 | 11.0 | 0.00 | 0.00 | 0.00 | 93 | 1011.3 |
| 20260507053007 | 52 | 94 | 11.0 | 11.0 | 0.00 | 0.00 | 0.00 | 93 | 1011.2 |
| 20260507052509 | 51 | 94 | 11.0 | 11.0 | 0.00 | 0.00 | 0.00 | 93 | 1011.2 |
| 20260507052007 | 51 | 94 | 11.0 | 11.0 | 0.00 | 0.00 | 0.00 | 94 | 1011.1 |
| 20260507051507 | 51 | 94 | 11.0 | 11.0 | 0.00 | 0.00 | 0.00 | 95 | 1011.1 |
| 20260507051007 | 50 | 94 | 11.0 | 11.0 | 0.00 | 0.00 | 0.00 | 95 | 1011.1 |
| 20260507050508 | 50 | 94 | 11.0 | 11.0 | 0.00 | 0.00 | 0.00 | 95 | 1011.0 |
| 20260507050008 | 50 | 94 | 11.0 | 11.0 | 0.00 | 0.00 | 0.00 | 95 | 1011.0 |
| 20260507045507 | 50 | 94 | 11.0 | 11.0 | 0.00 | 0.00 | 0.00 | 96 | 1011.0 |
| 20260507045008 | 50 | 94 | 11.0 | 11.0 | 0.00 | 0.00 | 0.00 | 95 | 1010.9 |
| 20260507044507 | 50 | 94 | 11.0 | 11.0 | 0.00 | 0.00 | 0.00 | 95 | 1010.5 |
| 20260507044007 | 50 | 94 | 11.0 | 11.0 | 0.00 | 0.00 | 0.00 | 95 | 1010.8 |
| 20260507043508 | 50 | 94 | 11.0 | 11.0 | 0.00 | 0.00 | 0.00 | 94 | 1010.7 |
| 20260507043007 | 51 | 94 | 11.0 | 11.0 | 0.00 | 0.00 | 0.00 | 94 | 1010.6 |
| 20260507042507 | 50 | 94 | 11.0 | 11.0 | 0.00 | 0.00 | 0.00 | 95 | 1010.5 |
| 20260507042008 | 50 | 94 | 11.0 | 11.0 | 0.00 | 0.00 | 0.00 | 95 | 1010.5 |
| 20260507041007 | 50 | 94 | 11.0 | 11.0 | 0.00 | 0.00 | 0.00 | 96 | 1010.2 |
| 20260507040508 | 50 | 94 | 11.0 | 11.0 | 0.00 | 0.00 | 0.00 | 96 | 1010.4 |
| 20260507040008 | 50 | 94 | 11.0 | 11.0 | 0.00 | 0.00 | 0.00 | 95 | 1010.2 |
| 20260507035507 | 50 | 94 | 11.0 | 11.0 | 0.00 | 0.00 | 0.00 | 96 | 1010.3 |
| 20260507035008 | 50 | 94 | 11.0 | 11.0 | 0.00 | 0.00 | 0.00 | 96 | 1010.1 |
| 20260507034507 | 50 | 94 | 11.0 | 11.0 | 0.00 | 0.00 | 0.00 | 95 | 1010.2 |
| 20260507034008 | 50 | 94 | 11.0 | 11.0 | 0.00 | 0.00 | 0.00 | 96 | 1010.1 |
| 20260507033507 | 50 | 94 | 11.0 | 11.0 | 0.00 | 0.00 | 0.00 | 95 | 1010.0 |
| 20260507033008 | 50 | 94 | 11.0 | 11.0 | 0.00 | 0.00 | 0.00 | 96 | 1010.1 |
| 20260507032508 | 50 | 94 | 11.0 | 11.0 | 0.00 | 0.00 | 0.00 | 95 | 1010.0 |
| 20260507032008 | 50 | 94 | 11.0 | 11.0 | 0.00 | 0.00 | 0.00 | 95 | 1010.0 |
| 20260507031507 | 50 | 94 | 11.0 | 11.0 | 0.00 | 0.00 | 0.00 | 94 | 1010.0 |
| 20260507031006 | 50 | 94 | 11.0 | 11.0 | 0.00 | 0.00 | 0.00 | 95 | 1009.9 |
| 20260507030507 | 50 | 94 | 11.0 | 11.0 | 0.00 | 0.00 | 0.00 | 95 | 1010.0 |
| 20260507030008 | 50 | 94 | 11.0 | 11.0 | 0.00 | 0.00 | 0.00 | 96 | 1009.9 |
| 20260507025507 | 50 | 94 | 11.0 | 11.0 | 0.00 | 0.00 | 0.00 | 96 | 1009.9 |
| 20260507025007 | 50 | 94 | 11.0 | 11.0 | 0.00 | 0.00 | 0.00 | 97 | 1010.1 |
| 20260507024508 | 50 | 94 | 11.0 | 11.0 | 0.00 | 0.00 | 0.00 | 96 | 1009.9 |
| 20260507024007 | 50 | 94 | 11.0 | 11.0 | 0.00 | 0.00 | 0.00 | 97 | 1009.6 |
| 20260507023507 | 50 | 94 | 11.0 | 11.0 | 0.00 | 0.00 | 0.00 | 98 | 1010.0 |
| 20260507023007 | 50 | 94 | 11.0 | 11.0 | 0.00 | 0.00 | 0.00 | 98 | 1010.0 |
| 20260507022507 | 50 | 94 | 11.0 | 11.0 | 0.00 | 0.00 | 0.00 | 98 | 1009.7 |
| 20260507022007 | 50 | 94 | 11.0 | 11.0 | 0.00 | 0.00 | 0.00 | 98 | 1009.7 |
| 20260507021508 | 50 | 94 | 11.0 | 11.0 | 0.00 | 0.00 | 0.00 | 98 | 1010.1 |
| 20260507021007 | 50 | 94 | 11.0 | 11.0 | 0.00 | 0.00 | 0.00 | 98 | 1009.8 |
| 20260507020507 | 51 | 94 | 11.0 | 11.0 | 0.00 | 0.00 | 0.00 | 97 | 1009.7 |
| 20260507020008 | 51 | 94 | 11.0 | 11.0 | 0.00 | 0.00 | 0.00 | 97 | 1009.9 |
| 20260507015507 | 51 | 94 | 11.0 | 11.0 | 0.00 | 0.00 | 0.00 | 97 | 1009.9 |
| 20260507015008 | 51 | 94 | 11.0 | 11.0 | 0.00 | 0.00 | 0.00 | 97 | 1010.0 |
| 20260507014507 | 51 | 94 | 11.0 | 11.0 | 0.00 | 0.00 | 0.00 | 97 | 1009.9 |
| 20260507014008 | 51 | 94 | 11.0 | 11.0 | 0.00 | 0.00 | 0.00 | 98 | 1010.0 |
| 20260507013507 | 51 | 94 | 11.0 | 11.0 | 0.00 | 0.00 | 0.00 | 98 | 1009.7 |
| 20260507013008 | 51 | 94 | 11.0 | 11.0 | 0.00 | 0.00 | 0.00 | 98 | 1009.7 |
| 20260507012507 | 52 | 94 | 11.0 | 11.0 | 0.00 | 0.00 | 0.00 | 97 | 1009.7 |
| 20260507012007 | 52 | 94 | 11.0 | 11.0 | 0.00 | 0.00 | 0.00 | 97 | 1009.7 |
| 20260507011507 | 52 | 94 | 11.0 | 11.0 | 0.00 | 0.00 | 0.00 | 97 | 1009.5 |
| 20260507011008 | 52 | 94 | 11.0 | 11.0 | 0.00 | 0.00 | 0.00 | 97 | 1009.8 |
| 20260507010507 | 52 | 94 | 11.0 | 11.0 | 0.00 | 0.00 | 0.00 | 98 | 1009.6 |
| 20260507010008 | 52 | 94 | 11.0 | 11.0 | 0.00 | 0.00 | 0.00 | 98 | 1009.3 |
| 20260507005507 | 52 | 94 | 11.0 | 11.0 | 0.00 | 0.00 | 0.00 | 98 | 1009.4 |
| 20260507005007 | 52 | 94 | 11.0 | 11.0 | 0.00 | 0.00 | 0.00 | 98 | 1009.4 |
| 20260507004507 | 52 | 94 | 11.0 | 11.0 | 0.00 | 0.00 | 0.00 | 98 | 1009.4 |
| 20260507004007 | 52 | 94 | 11.0 | 11.0 | 0.00 | 0.00 | 0.00 | 98 | 1009.2 |
| 20260507003508 | 52 | 94 | 11.0 | 11.0 | 0.00 | 0.00 | 0.00 | 98 | 1009.3 |
| 20260507003008 | 52 | 94 | 11.0 | 11.0 | 0.00 | 0.00 | 0.00 | 98 | 1009.3 |
| 20260507002508 | 53 | 94 | 11.0 | 11.0 | 0.00 | 0.00 | 0.00 | 98 | 1009.4 |
| 20260507002007 | 53 | 94 | 11.0 | 11.0 | 0.00 | 0.00 | 0.00 | 97 | 1009.3 |
| 20260507001508 | 53 | 94 | 11.0 | 11.0 | 0.00 | 0.00 | 0.00 | 97 | 1009.2 |
| 20260507001007 | 53 | 94 | 11.0 | 11.0 | 0.00 | 0.00 | 0.00 | 97 | 1009.2 |
| 20260507000508 | 53 | 94 | 11.0 | 11.0 | 0.00 | 0.00 | 0.00 | 97 | 1009.0 |
| 20260507000008 | 53 | 94 | 11.0 | 11.0 | 0.00 | 0.00 | 0.00 | 96 | 1009.1 |
| 20260506235508 | 53 | 94 | 11.0 | 11.0 | 0.00 | 0.00 | 0.00 | 96 | 1009.2 |
| 20260506235007 | 53 | 94 | 11.0 | 11.0 | 0.00 | 0.00 | 0.00 | 95 | 1009.0 |
| 20260506234508 | 53 | 94 | 11.0 | 11.0 | 0.00 | 0.00 | 0.00 | 98 | 1008.9 |
| 20260506234008 | 53 | 94 | 11.0 | 11.0 | 0.00 | 0.00 | 0.00 | 98 | 1008.8 |
| 20260506233507 | 53 | 94 | 11.0 | 11.0 | 0.00 | 0.00 | 0.00 | 98 | 1008.7 |
| 20260506233007 | 53 | 94 | 11.0 | 11.0 | 0.00 | 0.00 | 0.00 | 97 | 1008.6 |
| 20260506232007 | 54 | 94 | 11.0 | 11.0 | 0.00 | 0.00 | 0.00 | 96 | 1009.0 |
| 20260506231508 | 53 | 94 | 11.0 | 11.0 | 0.00 | 0.00 | 0.00 | 96 | 1009.2 |
| 20260506231007 | 53 | 94 | 11.0 | 11.0 | 0.00 | 0.00 | 0.00 | 97 | 1009.0 |
| 20260506230508 | 53 | 94 | 11.0 | 11.0 | 0.00 | 0.00 | 0.00 | 97 | 1008.7 |
| 20260506230007 | 53 | 94 | 11.0 | 11.0 | 0.00 | 0.00 | 0.00 | 97 | 1008.7 |
| 20260506225507 | 53 | 94 | 11.0 | 11.0 | 0.00 | 0.00 | 0.00 | 99 | 1008.7 |
| 20260506225008 | 53 | 94 | 11.0 | 11.0 | 0.00 | 0.00 | 0.00 | 99 | 1008.9 |
| 20260506224508 | 53 | 94 | 11.0 | 11.0 | 0.00 | 0.00 | 0.00 | 99 | 1008.8 |
| 20260506224007 | 53 | 94 | 11.0 | 11.0 | 0.00 | 0.00 | 0.00 | 99 | 1008.8 |
| 20260506223508 | 53 | 94 | 11.0 | 11.0 | 0.00 | 0.00 | 0.00 | 99 | 1008.9 |
| 20260506223008 | 53 | 94 | 11.0 | 11.0 | 0.00 | 0.00 | 0.00 | 99 | 1009.0 |
| 20260506222507 | 54 | 94 | 11.0 | 11.0 | 0.00 | 0.00 | 0.00 | 99 | 1009.0 |
| 20260506222007 | 54 | 94 | 11.0 | 11.0 | 0.00 | 0.00 | 0.00 | 99 | 1008.8 |
| 20260506221508 | 54 | 94 | 11.0 | 11.0 | 0.00 | 0.00 | 0.00 | 98 | 1008.9 |
| 20260506221007 | 54 | 94 | 11.0 | 11.0 | 0.00 | 0.00 | 0.00 | 98 | 1008.7 |
| 20260506220008 | 54 | 94 | 11.0 | 11.0 | 0.00 | 0.00 | 0.00 | 98 | 1008.5 |
| 20260506215508 | 54 | 94 | 11.0 | 11.0 | 0.00 | 0.00 | 0.00 | 98 | 1008.6 |
| 20260506215007 | 54 | 94 | 11.0 | 11.0 | 0.00 | 0.00 | 0.00 | 99 | 1008.5 |
| 20260506214507 | 54 | 94 | 11.0 | 11.0 | 0.00 | 0.00 | 0.00 | 99 | 1008.3 |
| 20260506214008 | 53 | 94 | 11.0 | 11.0 | 0.00 | 0.00 | 0.00 | 99 | 1008.3 |
| 20260506213508 | 53 | 94 | 11.0 | 11.0 | 0.00 | 0.00 | 0.00 | 99 | 1008.4 |
| 20260506213007 | 54 | 94 | 11.0 | 11.0 | 0.00 | 0.00 | 0.00 | 99 | 1008.5 |
| 20260506212507 | 54 | 94 | 11.0 | 11.0 | 0.00 | 0.00 | 0.00 | 99 | 1008.8 |
| 20260506212007 | 54 | 94 | 11.0 | 11.0 | 0.00 | 0.00 | 0.00 | 99 | 1008.5 |
| 20260506211509 | 54 | 94 | 11.0 | 11.0 | 0.00 | 0.00 | 0.00 | 98 | 1008.4 |
| 20260506211007 | 54 | 94 | 11.0 | 11.0 | 0.00 | 0.00 | 0.00 | 98 | 1008.6 |
| 20260506210507 | 54 | 94 | 11.0 | 11.0 | 0.00 | 0.00 | 0.00 | 98 | 1008.4 |
| 20260506210007 | 54 | 94 | 11.0 | 11.0 | 0.00 | 0.00 | 0.00 | 98 | 1008.6 |
| 20260506205507 | 54 | 94 | 11.0 | 11.0 | 0.00 | 0.00 | 0.00 | 98 | 1008.7 |
| 20260506204508 | 54 | 94 | 11.0 | 11.0 | 0.00 | 0.00 | 0.00 | 97 | 1008.7 |
| 20260506204007 | 53 | 94 | 11.0 | 11.0 | 0.00 | 0.00 | 0.00 | 97 | 1008.9 |
| 20260506203507 | 54 | 94 | 11.0 | 11.0 | 0.00 | 0.00 | 0.00 | 97 | 1009.0 |
| 20260506203008 | 55 | 94 | 11.0 | 11.0 | 0.00 | 0.00 | 0.00 | 97 | 1009.0 |
| 20260506202507 | 55 | 94 | 11.0 | 11.0 | 0.00 | 0.00 | 0.00 | 95 | 1008.7 |
| 20260506202006 | 56 | 94 | 11.0 | 11.0 | 0.00 | 0.00 | 0.00 | 92 | 1009.2 |
| 20260506201507 | 57 | 94 | 11.0 | 11.0 | 0.00 | 0.00 | 0.00 | 88 | 1008.8 |
| 20260506201006 | 56 | 94 | 11.0 | 11.0 | 0.00 | 0.00 | 0.00 | 88 | 1008.8 |
| 20260506200507 | 57 | 94 | 11.0 | 11.0 | 0.00 | 0.00 | 0.00 | 86 | 1008.5 |
| 20260506200008 | 57 | 94 | 11.0 | 11.0 | 0.00 | 0.00 | 0.00 | 87 | 1008.1 |
| 20260506195507 | 57 | 94 | 11.0 | 11.0 | 0.00 | 0.00 | 0.00 | 87 | 1007.6 |
| 20260506195008 | 57 | 94 | 11.0 | 11.0 | 0.00 | 0.00 | 0.00 | 87 | 1007.6 |
| 20260506194508 | 57 | 94 | 11.0 | 11.0 | 0.00 | 0.00 | 0.00 | 87 | 1007.7 |
| 20260506194007 | 57 | 94 | 11.0 | 11.0 | 0.00 | 0.00 | 0.00 | 86 | 1007.7 |
| 20260506193508 | 57 | 94 | 11.0 | 11.0 | 0.00 | 0.00 | 0.00 | 86 | 1007.6 |
| 20260506193007 | 57 | 94 | 11.0 | 11.0 | 0.00 | 0.00 | 0.00 | 86 | 1007.8 |
| 20260506192507 | 57 | 94 | 11.0 | 11.0 | 0.00 | 0.00 | 0.00 | 87 | 1007.8 |
| 20260506192008 | 57 | 94 | 11.0 | 11.0 | 0.00 | 0.00 | 0.00 | 86 | 1007.7 |
| 20260506191508 | 57 | 94 | 11.0 | 11.0 | 0.00 | 0.00 | 0.00 | 86 | 1007.4 |
| 20260506191008 | 57 | 94 | 11.0 | 11.0 | 0.00 | 0.00 | 0.00 | 85 | 1007.3 |
| 20260506190507 | 57 | 94 | 11.0 | 11.0 | 0.00 | 0.00 | 0.00 | 85 | 1007.4 |
| 20260506190008 | 57 | 94 | 11.0 | 11.0 | 0.00 | 0.00 | 0.00 | 86 | 1007.5 |
| 20260506185008 | 57 | 94 | 11.0 | 11.0 | 0.00 | 0.00 | 0.00 | 89 | 1007.3 |
| 20260506184508 | 57 | 94 | 11.0 | 11.0 | 0.00 | 0.00 | 0.00 | 88 | 1007.2 |
| 20260506184009 | 57 | 94 | 11.0 | 11.0 | 0.00 | 0.00 | 0.00 | 88 | 1007.2 |
| 20260506183507 | 57 | 94 | 11.0 | 11.0 | 0.00 | 0.00 | 0.00 | 86 | 1007.0 |
| 20260506183007 | 57 | 94 | 11.0 | 11.0 | 0.00 | 0.00 | 0.00 | 84 | 1006.7 |
| 20260506182507 | 57 | 94 | 11.0 | 11.0 | 0.00 | 0.00 | 0.00 | 85 | 1006.7 |
| 20260506182007 | 57 | 94 | 11.0 | 11.0 | 0.00 | 0.00 | 0.00 | 86 | 1006.5 |
| 20260506181508 | 57 | 94 | 11.0 | 11.0 | 0.00 | 0.00 | 0.00 | 85 | 1006.6 |
| 20260506181007 | 58 | 94 | 11.0 | 11.0 | 0.00 | 0.00 | 0.00 | 84 | 1006.7 |
| 20260506180508 | 58 | 94 | 11.0 | 11.0 | 0.00 | 0.00 | 0.00 | 84 | 1006.5 |
| 20260506180008 | 58 | 94 | 11.0 | 11.0 | 0.00 | 0.00 | 0.00 | 84 | 1006.6 |
| 20260506175507 | 58 | 94 | 11.0 | 11.0 | 0.00 | 0.00 | 0.00 | 85 | 1006.5 |
| 20260506175007 | 58 | 94 | 11.0 | 11.0 | 0.00 | 0.00 | 0.00 | 84 | 1006.5 |
| 20260506174508 | 58 | 94 | 11.0 | 11.0 | 0.00 | 0.00 | 0.00 | 84 | 1006.6 |
| 20260506174007 | 59 | 94 | 11.0 | 11.0 | 0.00 | 0.00 | 0.00 | 83 | 1006.7 |
| 20260506173507 | 59 | 94 | 11.0 | 11.0 | 0.00 | 0.00 | 0.00 | 82 | 1006.5 |
| 20260506173009 | 59 | 94 | 11.0 | 11.0 | 0.00 | 0.00 | 0.00 | 81 | 1006.4 |
| 20260506172508 | 59 | 94 | 11.0 | 11.0 | 0.00 | 0.00 | 0.00 | 80 | 1006.6 |
| 20260506172007 | 59 | 94 | 11.0 | 11.0 | 0.00 | 0.00 | 0.00 | 78 | 1006.6 |
| 20260506171509 | 59 | 94 | 11.0 | 11.0 | 0.00 | 0.00 | 0.00 | 76 | 1006.6 |
| 20260506171008 | 60 | 94 | 11.0 | 11.0 | 0.00 | 0.00 | 0.00 | 72 | 1006.7 |
| 20260506170507 | 59 | 94 | 11.0 | 11.0 | 0.00 | 0.00 | 0.00 | 72 | 1006.5 |
| 20260506170008 | 59 | 94 | 11.0 | 11.0 | 0.00 | 0.00 | 0.00 | 77 | 1006.5 |
| 20260506165509 | 59 | 94 | 11.0 | 11.0 | 0.00 | 0.00 | 0.00 | 77 | 1006.5 |
| 20260506165008 | 59 | 94 | 11.0 | 11.0 | 0.00 | 0.00 | 0.00 | 79 | 1006.5 |
| 20260506164508 | 59 | 94 | 11.0 | 11.0 | 0.00 | 0.00 | 0.00 | 79 | 1006.6 |
| 20260506164008 | 60 | 94 | 11.0 | 11.0 | 0.00 | 0.00 | 0.00 | 79 | 1006.8 |
| 20260506163507 | 59 | 94 | 11.0 | 11.0 | 0.00 | 0.00 | 0.00 | 77 | 1006.7 |
| 20260506163008 | 61 | 94 | 11.0 | 11.0 | 0.00 | 0.00 | 0.00 | 65 | 1006.6 |
| 20260506162507 | 61 | 94 | 11.0 | 11.0 | 0.00 | 0.00 | 0.00 | 67 | 1006.6 |
| 20260506162008 | 60 | 94 | 11.0 | 11.0 | 0.00 | 0.00 | 0.00 | 70 | 1006.6 |
| 20260506161507 | 58 | 94 | 11.0 | 11.0 | 0.00 | 0.00 | 0.00 | 76 | 1007.0 |
| 20260506161007 | 59 | 94 | 11.0 | 11.0 | 0.00 | 0.00 | 0.00 | 80 | 1007.2 |
| 20260506160508 | 58 | 94 | 11.0 | 11.0 | 0.00 | 0.00 | 0.00 | 78 | 1007.1 |
| 20260506160008 | 59 | 94 | 11.0 | 11.0 | 0.00 | 0.00 | 0.00 | 81 | 1007.2 |
| 20260506155508 | 59 | 94 | 11.0 | 11.0 | 0.00 | 0.00 | 0.00 | 78 | 1007.0 |
| 20260506155008 | 58 | 94 | 11.0 | 11.0 | 0.00 | 0.00 | 0.00 | 76 | 1006.9 |
| 20260506154508 | 59 | 94 | 11.0 | 11.0 | 0.00 | 0.00 | 0.00 | 76 | 1006.3 |
| 20260506154007 | 59 | 94 | 11.0 | 11.0 | 0.00 | 0.00 | 0.00 | 71 | 1007.1 |
| 20260506153507 | 57 | 94 | 11.0 | 11.0 | 0.00 | 0.00 | 0.00 | 79 | 1007.5 |
| 20260506153007 | 58 | 94 | 11.0 | 11.0 | 0.00 | 0.00 | 0.00 | 79 | 1007.8 |
| 20260506152507 | 59 | 94 | 11.0 | 11.0 | 0.00 | 0.00 | 0.00 | 74 | 1007.9 |
| 20260506152008 | 59 | 94 | 11.0 | 11.0 | 0.00 | 0.00 | 0.00 | 71 | 1007.8 |
| 20260506151508 | 60 | 94 | 11.0 | 11.0 | 0.00 | 0.00 | 0.00 | 69 | 1007.6 |
| 20260506151008 | 60 | 94 | 11.0 | 11.0 | 0.00 | 0.00 | 0.00 | 69 | 1007.7 |
| 20260506150508 | 60 | 94 | 11.0 | 11.0 | 0.00 | 0.00 | 0.00 | 70 | 1007.4 |
| 20260506150007 | 61 | 94 | 11.0 | 11.0 | 0.00 | 0.00 | 0.00 | 66 | 1007.6 |
| 20260506145508 | 62 | 94 | 11.0 | 11.0 | 0.00 | 0.00 | 0.00 | 65 | 1007.5 |
| 20260506145007 | 62 | 94 | 11.0 | 11.0 | 0.00 | 0.00 | 0.00 | 68 | 1007.5 |
| 20260506144507 | 62 | 94 | 11.0 | 11.0 | 0.00 | 0.00 | 0.00 | 71 | 1007.9 |
| 20260506144008 | 63 | 94 | 11.0 | 11.0 | 0.00 | 0.00 | 0.00 | 71 | 1008.0 |
| 20260506143508 | 64 | 94 | 11.0 | 11.0 | 0.00 | 0.00 | 0.00 | 67 | 1007.8 |
| 20260506143008 | 65 | 94 | 11.0 | 11.0 | 0.00 | 0.00 | 0.00 | 58 | 1007.9 |
| 20260506142507 | 66 | 94 | 11.0 | 11.0 | 0.00 | 0.00 | 0.00 | 56 | 1007.9 |
| 20260506142007 | 66 | 94 | 11.0 | 11.0 | 0.00 | 0.00 | 0.00 | 56 | 1007.7 |
| 20260506141508 | 66 | 94 | 11.0 | 11.0 | 0.00 | 0.00 | 0.00 | 55 | 1007.9 |
| 20260506141006 | 66 | 94 | 11.0 | 11.0 | 0.00 | 0.00 | 0.00 | 55 | 1008.0 |
| 20260506140508 | 66 | 94 | 11.0 | 11.0 | 0.00 | 0.00 | 0.00 | 57 | 1008.0 |
| 20260506140008 | 67 | 94 | 11.0 | 11.0 | 0.00 | 0.00 | 0.00 | 55 | 1008.3 |
| 20260506135508 | 67 | 94 | 11.0 | 11.0 | 0.00 | 0.00 | 0.00 | 54 | 1008.3 |
| 20260506135009 | 67 | 94 | 11.0 | 11.0 | 0.00 | 0.00 | 0.00 | 55 | 1007.9 |
| 20260506134007 | 67 | 94 | 11.0 | 11.0 | 0.00 | 0.00 | 0.00 | 53 | 1008.2 |
| 20260506133508 | 67 | 94 | 11.0 | 11.0 | 0.00 | 0.00 | 0.00 | 53 | 1008.3 |
| 20260506133007 | 67 | 94 | 11.0 | 11.0 | 0.00 | 0.00 | 0.00 | 53 | 1008.3 |
| 20260506132507 | 67 | 94 | 11.0 | 11.0 | 0.00 | 0.00 | 0.00 | 54 | 1008.3 |
| 20260506132008 | 68 | 94 | 11.0 | 11.0 | 0.00 | 0.00 | 0.00 | 53 | 1008.3 |
| 20260506131508 | 67 | 94 | 11.0 | 11.0 | 0.00 | 0.00 | 0.00 | 54 | 1008.4 |
| 20260506130508 | 67 | 94 | 11.0 | 11.0 | 0.00 | 0.00 | 0.00 | 54 | 1008.6 |
| 20260506130007 | 68 | 94 | 11.0 | 11.0 | 0.00 | 0.00 | 0.00 | 54 | 1008.7 |
| 20260506125508 | 68 | 94 | 11.0 | 11.0 | 0.00 | 0.00 | 0.00 | 56 | 1008.8 |
| 20260506125008 | 67 | 94 | 11.0 | 11.0 | 0.00 | 0.00 | 0.00 | 54 | 1008.8 |
| 20260506124508 | 67 | 94 | 11.0 | 11.0 | 0.00 | 0.00 | 0.00 | 54 | 1008.8 |
| 20260506124008 | 68 | 94 | 11.0 | 11.0 | 0.00 | 0.00 | 0.00 | 55 | 1008.7 |
| 20260506123508 | 67 | 94 | 11.0 | 11.0 | 0.00 | 0.00 | 0.00 | 55 | 1008.9 |
| 20260506123008 | 69 | 94 | 11.0 | 11.0 | 0.00 | 0.00 | 0.00 | 57 | 1009.0 |
| 20260506122507 | 68 | 94 | 11.0 | 11.0 | 0.00 | 0.00 | 0.00 | 58 | 1009.0 |
| 20260506122008 | 67 | 94 | 11.0 | 11.0 | 0.00 | 0.00 | 0.00 | 60 | 1008.9 |
| 20260506121507 | 66 | 94 | 11.0 | 11.0 | 0.00 | 0.00 | 0.00 | 62 | 1009.0 |
| 20260506121007 | 65 | 94 | 11.0 | 11.0 | 0.00 | 0.00 | 0.00 | 62 | 1009.2 |
| 20260506120508 | 65 | 94 | 11.0 | 11.0 | 0.00 | 0.00 | 0.00 | 63 | 1009.2 |
| 20260506120007 | 64 | 94 | 11.0 | 11.0 | 0.00 | 0.00 | 0.00 | 64 | 1009.0 |
| 20260506115507 | 64 | 94 | 11.0 | 11.0 | 0.00 | 0.00 | 0.00 | 68 | 1009.1 |
| 20260506115008 | 64 | 94 | 11.0 | 11.0 | 0.00 | 0.00 | 0.00 | 65 | 1009.4 |
| 20260506114508 | 64 | 94 | 11.0 | 11.0 | 0.00 | 0.00 | 0.00 | 68 | 1009.2 |
| 20260506114007 | 63 | 94 | 11.0 | 11.0 | 0.00 | 0.00 | 0.00 | 65 | 1009.3 |
| 20260506113507 | 64 | 94 | 11.0 | 11.0 | 0.00 | 0.00 | 0.00 | 66 | 1009.4 |
| 20260506113007 | 65 | 94 | 11.0 | 11.0 | 0.00 | 0.00 | 0.00 | 64 | 1009.3 |
| 20260506112507 | 65 | 94 | 11.0 | 11.0 | 0.00 | 0.00 | 0.00 | 67 | 1009.3 |
| 20260506112008 | 64 | 94 | 11.0 | 11.0 | 0.00 | 0.00 | 0.00 | 66 | 1009.6 |
| 20260506111508 | 63 | 94 | 11.0 | 11.0 | 0.00 | 0.00 | 0.00 | 66 | 1009.5 |
| 20260506111008 | 64 | 94 | 11.0 | 11.0 | 0.00 | 0.00 | 0.00 | 65 | 1009.6 |
| 20260506110507 | 64 | 94 | 11.0 | 11.0 | 0.00 | 0.00 | 0.00 | 66 | 1009.5 |
| 20260506110007 | 63 | 94 | 11.0 | 11.0 | 0.00 | 0.00 | 0.00 | 65 | 1009.6 |
| 20260506105507 | 64 | 94 | 11.0 | 11.0 | 0.00 | 0.00 | 0.00 | 66 | 1009.6 |
| 20260506105008 | 62 | 94 | 11.0 | 11.0 | 0.00 | 0.00 | 0.00 | 67 | 1009.7 |
| 20260506104508 | 62 | 94 | 11.0 | 11.0 | 0.00 | 0.00 | 0.00 | 70 | 1009.6 |
| 20260506104008 | 62 | 94 | 11.0 | 11.0 | 0.00 | 0.00 | 0.00 | 70 | 1009.8 |
| 20260506103508 | 62 | 94 | 11.0 | 11.0 | 0.00 | 0.00 | 0.00 | 70 | 1009.7 |
| 20260506103008 | 62 | 94 | 11.0 | 11.0 | 0.00 | 0.00 | 0.00 | 69 | 1009.6 |
| 20260506102508 | 62 | 94 | 11.0 | 11.0 | 0.00 | 0.00 | 0.00 | 70 | 1009.7 |
| 20260506102008 | 61 | 94 | 11.0 | 11.0 | 0.00 | 0.00 | 0.00 | 69 | 1009.6 |
| 20260506101507 | 62 | 94 | 11.0 | 11.0 | 0.00 | 0.00 | 0.00 | 69 | 1009.6 |
| 20260506101008 | 62 | 94 | 11.0 | 11.0 | 0.00 | 0.00 | 0.00 | 69 | 1009.7 |
| 20260506100507 | 61 | 94 | 11.0 | 11.0 | 0.00 | 0.00 | 0.00 | 70 | 1009.8 |
| 20260506100008 | 61 | 94 | 11.0 | 11.0 | 0.00 | 0.00 | 0.00 | 71 | 1009.5 |
| 20260506095507 | 61 | 94 | 11.0 | 11.0 | 0.00 | 0.00 | 0.00 | 71 | 1009.6 |
| 20260506095009 | 61 | 94 | 11.0 | 11.0 | 0.00 | 0.00 | 0.00 | 71 | 1009.6 |
| 20260506094508 | 61 | 94 | 11.0 | 11.0 | 0.00 | 0.00 | 0.00 | 71 | 1009.4 |
| 20260506094008 | 60 | 94 | 11.0 | 11.0 | 0.00 | 0.00 | 0.00 | 72 | 1009.6 |
| 20260506093508 | 60 | 94 | 11.0 | 11.0 | 0.00 | 0.00 | 0.00 | 71 | 1009.6 |
| 20260506093008 | 60 | 94 | 11.0 | 11.0 | 0.00 | 0.00 | 0.00 | 73 | 1009.4 |
| 20260506092008 | 59 | 94 | 11.0 | 11.0 | 0.00 | 0.00 | 0.00 | 74 | 1009.3 |
| 20260506091508 | 59 | 94 | 11.0 | 11.0 | 0.00 | 0.00 | 0.00 | 75 | 1009.4 |
| 20260506091008 | 59 | 94 | 11.0 | 11.0 | 0.00 | 0.00 | 0.00 | 74 | 1009.6 |
| 20260506090508 | 59 | 94 | 11.0 | 11.0 | 0.00 | 0.00 | 0.00 | 74 | 1009.6 |
| 20260506090007 | 59 | 94 | 11.0 | 11.0 | 0.00 | 0.00 | 0.00 | 74 | 1009.8 |
| 20260506085508 | 59 | 94 | 11.0 | 11.0 | 0.00 | 0.00 | 0.00 | 75 | 1009.5 |
| 20260506085008 | 59 | 94 | 11.0 | 11.0 | 0.00 | 0.00 | 0.00 | 76 | 1009.5 |
| 20260506084507 | 59 | 94 | 11.0 | 11.0 | 0.00 | 0.00 | 0.00 | 76 | 1009.5 |
| 20260506084007 | 59 | 94 | 11.0 | 11.0 | 0.00 | 0.00 | 0.00 | 78 | 1009.5 |
| 20260506083507 | 58 | 94 | 11.0 | 11.0 | 0.00 | 0.00 | 0.00 | 78 | 1009.5 |
| 20260506083008 | 58 | 94 | 11.0 | 11.0 | 0.00 | 0.00 | 0.00 | 79 | 1009.5 |
| 20260506082507 | 58 | 94 | 11.0 | 11.0 | 0.00 | 0.00 | 0.00 | 79 | 1009.4 |
| 20260506082007 | 58 | 94 | 11.0 | 11.0 | 0.00 | 0.00 | 0.00 | 80 | 1009.6 |
| 20260506081508 | 58 | 94 | 11.0 | 11.0 | 0.00 | 0.00 | 0.00 | 80 | 1009.6 |
| 20260506081008 | 57 | 94 | 11.0 | 11.0 | 0.00 | 0.00 | 0.00 | 81 | 1009.4 |
| 20260506080507 | 57 | 94 | 11.0 | 11.0 | 0.00 | 0.00 | 0.00 | 82 | 1009.6 |
| 20260506073507 | 57 | 216 | 7.0 | 9.0 | 0.00 | 0.00 | 0.00 | 84 | 1009.3 |